| time (UTC) | temp C | wind direction | speed KPH | gust KPH | rain 1hr cm | rain 24hr cm | rain mn cm | humidity % | barometer mb |
| 20260510163006 | 15 | 218 | 0.0 | 8.0 | 0.00 | 0.00 | 0.00 | 15 | 1015.8 |
| 20260510161601 | 14 | 212 | 0.0 | 4.8 | 0.00 | 0.00 | 0.00 | 15 | 1015.8 |
| 20260510160057 | 13 | 264 | 0.0 | 4.8 | 0.00 | 0.00 | 0.00 | 19 | 1015.7 |
| 20260510154558 | 13 | 8 | 1.6 | 3.2 | 0.00 | 0.00 | 0.00 | 19 | 1015.8 |
| 20260510153049 | 11 | 95 | 0.0 | 1.6 | 0.00 | 0.00 | 0.00 | 26 | 1015.9 |
| 20260510151554 | 8 | 224 | 0.0 | 3.2 | 0.00 | 0.00 | 0.00 | 34 | 1016.1 |
| 20260510150044 | 6 | 71 | 0.0 | 0.0 | 0.00 | 0.00 | 0.00 | 38 | 1016.3 |
| 20260510144549 | 3 | 71 | 0.0 | 0.0 | 0.00 | 0.00 | 0.00 | 43 | 1016.4 |
| 20260510143039 | 2 | 37 | 0.0 | 0.0 | 0.00 | 0.00 | 0.00 | 47 | 1016.4 |
| 20260510141531 | 1 | 37 | 0.0 | 0.0 | 0.00 | 0.00 | 0.00 | 50 | 1016.5 |
| 20260510140030 | 0 | 37 | 0.0 | 0.0 | 0.00 | 0.00 | 0.00 | 53 | 1016.7 |
| 20260510134529 | 0 | 37 | 0.0 | 0.0 | 0.00 | 0.00 | 0.00 | 55 | 1016.6 |
| 20260510133029 | -1 | 37 | 0.0 | 0.0 | 0.00 | 0.00 | 0.00 | 60 | 1016.5 |
| 20260510131540 | -1 | 37 | 0.0 | 0.0 | 0.00 | 0.00 | 0.00 | 56 | 1016.4 |
| 20260510130026 | -1 | 37 | 0.0 | 0.0 | 0.00 | 0.00 | 0.00 | 56 | 1016.1 |
| 20260510124524 | -1 | 37 | 0.0 | 1.6 | 0.00 | 0.00 | 0.00 | 55 | 1016.1 |
| 20260510123023 | -1 | 266 | 0.0 | 1.6 | 0.00 | 0.00 | 0.00 | 55 | 1015.9 |
| 20260510121522 | -1 | 266 | 0.0 | 0.0 | 0.00 | 0.00 | 0.00 | 57 | 1015.8 |
| 20260510120020 | -1 | 266 | 0.0 | 1.6 | 0.00 | 0.00 | 0.00 | 56 | 1015.6 |
| 20260510114520 | -1 | 266 | 0.0 | 0.0 | 0.00 | 0.00 | 0.00 | 57 | 1015.5 |
| 20260510113021 | -1 | 266 | 0.0 | 0.0 | 0.00 | 0.00 | 0.00 | 58 | 1015.5 |
| 20260510111517 | -1 | 266 | 0.0 | 0.0 | 0.00 | 0.00 | 0.00 | 58 | 1015.2 |
| 20260510110016 | -1 | 266 | 0.0 | 0.0 | 0.00 | 0.00 | 0.00 | 57 | 1014.9 |
| 20260510104512 | -1 | 266 | 0.0 | 0.0 | 0.00 | 0.00 | 0.00 | 54 | 1014.9 |
| 20260510103010 | -1 | 266 | 0.0 | 1.6 | 0.00 | 0.00 | 0.00 | 55 | 1014.9 |
| 20260510101509 | -1 | 54 | 0.0 | 0.0 | 0.00 | 0.00 | 0.00 | 54 | 1014.8 |
| 20260510100006 | -1 | 54 | 0.0 | 1.6 | 0.00 | 0.00 | 0.00 | 55 | 1014.7 |
| 20260510094507 | 0 | 54 | 0.0 | 0.0 | 0.00 | 0.00 | 0.00 | 54 | 1014.5 |
| 20260510093004 | 0 | 54 | 0.0 | 1.6 | 0.00 | 0.00 | 0.00 | 57 | 1014.4 |
| 20260510091502 | 0 | 54 | 0.0 | 0.0 | 0.00 | 0.00 | 0.00 | 55 | 1014.4 |
| 20260510084600 | 0 | 54 | 0.0 | 0.0 | 0.00 | 0.00 | 0.00 | 55 | 1014.1 |
| 20260510083059 | 0 | 54 | 0.0 | 1.6 | 0.00 | 0.00 | 0.00 | 56 | 1014.1 |
| 20260510081555 | 0 | 82 | 0.0 | 3.2 | 0.00 | 0.00 | 0.00 | 55 | 1014.0 |
| 20260510074553 | 0 | 139 | 0.0 | 0.0 | 0.00 | 0.00 | 0.00 | 56 | 1013.8 |
| 20260510073110 | 0 | 70 | 0.0 | 1.6 | 0.00 | 0.00 | 0.00 | 55 | 1013.8 |
| 20260510071546 | 1 | 244 | 0.0 | 0.0 | 0.00 | 0.00 | 0.00 | 53 | 1013.7 |
| 20260510070046 | 1 | 242 | 0.0 | 0.0 | 0.00 | 0.00 | 0.00 | 53 | 1013.5 |
| 20260510064559 | 1 | 131 | 0.0 | 0.0 | 0.00 | 0.00 | 0.00 | 55 | 1013.4 |
| 20260510063041 | 1 | 248 | 0.0 | 0.0 | 0.00 | 0.00 | 0.00 | 55 | 1013.3 |
| 20260510061538 | 1 | 248 | 0.0 | 0.0 | 0.00 | 0.00 | 0.00 | 53 | 1013.3 |
| 20260510060136 | 2 | 248 | 0.0 | 0.0 | 0.00 | 0.00 | 0.00 | 55 | 1013.2 |
| 20260510054541 | 2 | 248 | 0.0 | 0.0 | 0.00 | 0.00 | 0.00 | 54 | 1013.0 |
| 20260510053042 | 3 | 276 | 0.0 | 1.6 | 0.00 | 0.00 | 0.00 | 53 | 1012.9 |
| 20260510051546 | 3 | 260 | 0.0 | 0.0 | 0.00 | 0.00 | 0.00 | 52 | 1012.8 |
| 20260510050031 | 3 | 321 | 0.0 | 3.2 | 0.00 | 0.00 | 0.00 | 51 | 1012.7 |
| 20260510044531 | 3 | 63 | 0.0 | 3.2 | 0.00 | 0.00 | 0.00 | 52 | 1012.8 |
| 20260510043030 | 4 | 241 | 0.0 | 0.0 | 0.00 | 0.00 | 0.00 | 51 | 1012.6 |
| 20260510041531 | 5 | 241 | 0.0 | 1.6 | 0.00 | 0.00 | 0.00 | 53 | 1012.3 |
| 20260510040029 | 5 | 242 | 0.0 | 0.0 | 0.00 | 0.00 | 0.00 | 49 | 1011.9 |
| 20260510034528 | 5 | 242 | 0.0 | 0.0 | 0.00 | 0.00 | 0.00 | 50 | 1011.7 |
| 20260510033027 | 6 | 269 | 0.0 | 0.0 | 0.00 | 0.00 | 0.00 | 50 | 1011.3 |
| 20260510031531 | 7 | 250 | 0.0 | 1.6 | 0.00 | 0.00 | 0.00 | 47 | 1011.1 |
| 20260510030027 | 7 | 248 | 0.0 | 0.0 | 0.00 | 0.00 | 0.00 | 46 | 1010.8 |
| 20260510024526 | 8 | 238 | 0.0 | 1.6 | 0.00 | 0.00 | 0.00 | 44 | 1010.6 |
| 20260510023026 | 10 | 106 | 0.0 | 0.0 | 0.00 | 0.00 | 0.00 | 41 | 1010.3 |
| 20260510021530 | 10 | 41 | 0.0 | 0.0 | 0.00 | 0.00 | 0.00 | 39 | 1010.2 |
| 20260510020030 | 11 | 41 | 0.0 | 1.6 | 0.00 | 0.00 | 0.00 | 39 | 1009.9 |
| 20260510014524 | 11 | 195 | 0.0 | 0.0 | 0.00 | 0.00 | 0.00 | 37 | 1009.6 |
| 20260510013024 | 12 | 195 | 0.0 | 0.0 | 0.00 | 0.00 | 0.00 | 36 | 1009.5 |
| 20260510011524 | 12 | 195 | 0.0 | 0.0 | 0.00 | 0.00 | 0.00 | 37 | 1009.4 |
| 20260510010022 | 12 | 257 | 0.0 | 3.2 | 0.00 | 0.00 | 0.00 | 34 | 1009.4 |
| 20260510004522 | 12 | 214 | 0.0 | 1.6 | 0.00 | 0.00 | 0.00 | 32 | 1009.4 |
| 20260510003022 | 13 | 158 | 0.0 | 0.0 | 0.00 | 0.00 | 0.00 | 33 | 1009.3 |
| 20260510001521 | 13 | 72 | 0.0 | 6.4 | 0.00 | 0.00 | 0.00 | 32 | 1009.2 |
| 20260510000022 | 12 | 143 | 0.0 | 0.0 | 0.00 | 0.00 | 0.00 | 34 | 1009.5 |
| 20260509234520 | 12 | 146 | 0.0 | 8.0 | 0.00 | 0.00 | 0.00 | 34 | 1009.4 |
| 20260509233021 | 13 | 250 | 1.6 | 6.4 | 0.00 | 0.00 | 0.00 | 35 | 1009.8 |
| 20260509231519 | 12 | 72 | 1.6 | 8.0 | 0.00 | 0.00 | 0.00 | 35 | 1009.3 |
| 20260509230019 | 12 | 53 | 0.0 | 6.4 | 0.00 | 0.00 | 0.00 | 36 | 1009.5 |
| 20260509224518 | 12 | 276 | 1.6 | 9.7 | 0.00 | 0.00 | 0.00 | 36 | 1009.7 |
| 20260509223019 | 13 | 238 | 6.4 | 17.7 | 0.00 | 0.00 | 0.00 | 31 | 1009.9 |
| 20260509221517 | 14 | 279 | 0.0 | 9.7 | 0.00 | 0.00 | 0.00 | 26 | 1009.0 |
| 20260509220016 | 15 | 135 | 0.0 | 4.8 | 0.00 | 0.00 | 0.00 | 27 | 1009.1 |
| 20260509214516 | 15 | 289 | 0.0 | 8.0 | 0.00 | 0.00 | 0.00 | 29 | 1009.3 |
| 20260509213018 | 15 | 158 | 3.2 | 14.5 | 0.00 | 0.00 | 0.00 | 26 | 1009.4 |
| 20260509211518 | 15 | 171 | 3.2 | 11.3 | 0.00 | 0.00 | 0.00 | 25 | 1009.1 |
| 20260509210014 | 16 | 160 | 3.2 | 11.3 | 0.00 | 0.00 | 0.00 | 24 | 1009.4 |
| 20260509204514 | 16 | 53 | 3.2 | 11.3 | 0.00 | 0.00 | 0.00 | 25 | 1009.4 |
| 20260509203023 | 15 | 243 | 3.2 | 11.3 | 0.00 | 0.00 | 0.00 | 27 | 1009.4 |
| 20260509201512 | 15 | 195 | 1.6 | 14.5 | 0.00 | 0.00 | 0.00 | 30 | 1009.8 |
| 20260509200009 | 16 | 226 | 1.6 | 9.7 | 0.00 | 0.00 | 0.00 | 27 | 1009.8 |
| 20260509194508 | 16 | 159 | 0.0 | 12.9 | 0.00 | 0.00 | 0.00 | 25 | 1009.7 |
| 20260509193008 | 15 | 174 | 0.0 | 9.7 | 0.00 | 0.00 | 0.00 | 26 | 1010.0 |
| 20260509191510 | 16 | 243 | 0.0 | 9.7 | 0.00 | 0.00 | 0.00 | 25 | 1010.0 |
| 20260509190104 | 15 | 79 | 3.2 | 16.1 | 0.00 | 0.00 | 0.00 | 26 | 1010.3 |
| 20260509184504 | 16 | 213 | 3.2 | 9.7 | 0.00 | 0.00 | 0.00 | 27 | 1010.0 |
| 20260509183003 | 15 | 8 | 0.0 | 16.1 | 0.00 | 0.00 | 0.00 | 27 | 1010.2 |
| 20260509181502 | 15 | 211 | 1.6 | 8.0 | 0.00 | 0.00 | 0.00 | 28 | 1010.2 |
| 20260509180003 | 15 | 68 | 1.6 | 12.9 | 0.00 | 0.00 | 0.00 | 28 | 1010.3 |
| 20260509174601 | 16 | 97 | 3.2 | 12.9 | 0.00 | 0.00 | 0.00 | 26 | 1010.5 |
| 20260509173104 | 16 | 229 | 3.2 | 22.5 | 0.00 | 0.00 | 0.00 | 26 | 1010.4 |
| 20260509171558 | 16 | 18 | 0.0 | 14.5 | 0.00 | 0.00 | 0.00 | 24 | 1010.2 |
| 20260509170057 | 16 | 272 | 1.6 | 12.9 | 0.00 | 0.00 | 0.00 | 25 | 1010.7 |
| 20260509164556 | 16 | 160 | 3.2 | 8.0 | 0.00 | 0.00 | 0.00 | 24 | 1010.7 |